| time (UTC) | temp F | wind direction | speed MPH | gust MPH | rain 1hr in | rain 24hr in | rain mn in | humidity % | barometer mb |
| 20260831024405 | 101 | 228 | 2.0 | 5.0 | 0.00 | 0.00 | 0.00 | 30 | 1007.7 |
| 20260831023404 | 101 | 223 | 2.0 | 5.0 | 0.00 | 0.00 | 0.00 | 30 | 1007.6 |
| 20260831020404 | 101 | 214 | 0.0 | 7.0 | 0.00 | 0.00 | 0.00 | 30 | 1007.3 |
| 20260831011403 | 103 | 238 | 3.0 | 5.0 | 0.00 | 0.00 | 0.00 | 29 | 1006.9 |
| 20260831010404 | 104 | 252 | 3.0 | 9.0 | 0.00 | 0.00 | 0.00 | 29 | 1007.0 |
| 20260831004404 | 104 | 266 | 3.0 | 10.0 | 0.00 | 0.00 | 0.00 | 28 | 1007.0 |
| 20260831001404 | 106 | 274 | 3.0 | 10.0 | 0.00 | 0.00 | 0.00 | 27 | 1007.1 |
| 20260831000403 | 106 | 236 | 3.0 | 10.0 | 0.00 | 0.00 | 0.00 | 27 | 1007.3 |
| 20260830234407 | 105 | 277 | 4.0 | 10.0 | 0.00 | 0.00 | 0.00 | 28 | 1007.6 |
| 20260830233407 | 107 | 287 | 7.0 | 10.0 | 0.00 | 0.00 | 0.00 | 26 | 1007.5 |
| 20260830230404 | 106 | 221 | 4.0 | 12.0 | 0.00 | 0.00 | 0.00 | 28 | 1007.8 |
| 20260830224403 | 107 | 191 | 8.0 | 15.0 | 0.00 | 0.00 | 0.00 | 28 | 1008.1 |
| 20260830221403 | 108 | 221 | 3.0 | 8.0 | 0.00 | 0.00 | 0.00 | 27 | 1008.6 |
| 20260830220403 | 106 | 254 | 2.0 | 7.0 | 0.00 | 0.00 | 0.00 | 29 | 1008.8 |
| 20260830214404 | 106 | 255 | 2.0 | 5.0 | 0.00 | 0.00 | 0.00 | 28 | 1009.2 |
| 20260830213404 | 106 | 257 | 2.0 | 10.0 | 0.00 | 0.00 | 0.00 | 28 | 1009.4 |
| 20260830211403 | 106 | 274 | 3.0 | 7.0 | 0.00 | 0.00 | 0.00 | 30 | 1009.8 |
| 20260830204404 | 106 | 263 | 6.0 | 8.0 | 0.00 | 0.00 | 0.00 | 29 | 1010.5 |
| 20260830201405 | 105 | 243 | 5.0 | 7.0 | 0.00 | 0.00 | 0.00 | 30 | 1011.0 |
| 20260830200403 | 105 | 190 | 3.0 | 9.0 | 0.00 | 0.00 | 0.00 | 30 | 1011.1 |
| 20260830194404 | 106 | 121 | 3.0 | 7.0 | 0.00 | 0.00 | 0.00 | 30 | 1011.4 |
| 20260830193404 | 105 | 121 | 1.0 | 8.0 | 0.00 | 0.00 | 0.00 | 30 | 1011.6 |
| 20260830191404 | 104 | 175 | 4.0 | 8.0 | 0.00 | 0.00 | 0.00 | 32 | 1012.0 |
| 20260830190405 | 103 | 227 | 2.0 | 8.0 | 0.00 | 0.00 | 0.00 | 31 | 1012.1 |
| 20260830184406 | 103 | 225 | 7.0 | 8.0 | 0.00 | 0.00 | 0.00 | 31 | 1012.5 |
| 20260830183405 | 103 | 277 | 6.0 | 10.0 | 0.00 | 0.00 | 0.00 | 32 | 1012.7 |
| 20260830181404 | 101 | 197 | 2.0 | 6.0 | 0.00 | 0.00 | 0.00 | 34 | 1012.8 |
| 20260830180404 | 100 | 202 | 3.0 | 6.0 | 0.00 | 0.00 | 0.00 | 32 | 1012.9 |
| 20260830174405 | 100 | 227 | 2.0 | 7.0 | 0.00 | 0.00 | 0.00 | 33 | 1013.2 |
| 20260830173406 | 99 | 217 | 2.0 | 7.0 | 0.00 | 0.00 | 0.00 | 34 | 1013.3 |
| 20260830171404 | 98 | 222 | 1.0 | 7.0 | 0.00 | 0.00 | 0.00 | 34 | 1013.3 |
| 20260830170404 | 97 | 175 | 3.0 | 6.0 | 0.00 | 0.00 | 0.00 | 36 | 1013.3 |
| 20260830163403 | 96 | 237 | 3.0 | 9.0 | 0.00 | 0.00 | 0.00 | 36 | 1013.3 |
| 20260830161404 | 94 | 146 | 6.0 | 12.0 | 0.00 | 0.00 | 0.00 | 38 | 1013.2 |
| 20260830160406 | 94 | 140 | 4.0 | 9.0 | 0.00 | 0.00 | 0.00 | 39 | 1013.2 |
| 20260830153405 | 92 | 79 | 3.0 | 9.0 | 0.00 | 0.00 | 0.00 | 42 | 1013.1 |
| 20260830151407 | 91 | 107 | 5.0 | 7.0 | 0.00 | 0.00 | 0.00 | 42 | 1013.1 |
| 20260830150406 | 90 | 105 | 5.0 | 9.0 | 0.00 | 0.00 | 0.00 | 43 | 1013.1 |
| 20260830143406 | 87 | 92 | 2.0 | 6.0 | 0.00 | 0.00 | 0.00 | 50 | 1013.2 |
| 20260830140403 | 86 | 5 | 1.0 | 3.0 | 0.00 | 0.00 | 0.00 | 53 | 1013.1 |
| 20260830134404 | 85 | 355 | 0.0 | 2.0 | 0.00 | 0.00 | 0.00 | 54 | 1012.7 |
| 20260830133404 | 85 | 355 | 0.0 | 3.0 | 0.00 | 0.00 | 0.00 | 54 | 1012.5 |
| 20260830131405 | 85 | 355 | 1.0 | 2.0 | 0.00 | 0.00 | 0.00 | 54 | 1012.2 |
| 20260830130404 | 85 | 355 | 2.0 | 3.0 | 0.00 | 0.00 | 0.00 | 54 | 1011.9 |
| 20260830124406 | 85 | 355 | 2.0 | 3.0 | 0.00 | 0.00 | 0.00 | 54 | 1011.9 |